Location: Namasale
(1.5000°N, 32.6167°E)
Time: 00:26:34
(UTC+00:00)

Vanguard 3 - Pass Details

Date: 06 December 2021
Orbit: 508 x 3260 km, 33.3° (Epoch: 27 January)

Event Time Altitude Azimuth Distance (km) Brightness Sun altitude
Exits shadow 02:03:10 20° 324° (NW) 5,343 10.8 -23.0°
Maximum altitude 02:08:28 22° 343° (NNW) 5,140 10.8 -21.8°
Drops below altitude 10° 02:21:24 10° 29° (NNE) 5,640 11.5 -18.8°
Sets 02:27:01 0° 43° (NE) 6,265 11.9 -17.5°
